Starlink 31621

operational
NORAD ID: 59465 Int'l Des: 2024-068 Owner: SPXS Country: US Constellation: starlink
LEOCIRCULAR

About Starlink 31621

Description loading...

Live Position

Loading 3D Globe...

Upcoming Passes

Altitude History

Altitude vs Time

uPlot chart will show altitude changes over time

Two-Line Element Set

1 59465U 24068L 26033.91848845 .00000926 00000-0 43181-4 0 9998
2 59465 42.9982 231.0106 0001167 286.9286 73.1437 15.27580096103208
Epoch: Feb 2, 2026 • Age: 13 hours

Current Status

Altitude 486.3 km
Velocity 7.62 km/s
Sub-Earth Point -16.33°S, 120.08°E
Launch Date Apr 10, 2024
Age 1.8 years
Type internet

Technical Details

Classification Payload
Mass 730.00 kg
Dry Mass 700.00 kg
Total Mass 730.00 kg
Length 0.30 m
Diameter 4.10 m
Span 29.00 m
Shape Box + pan
Manufacturer SPXS
Bus Type Starlink V2M
Phase Status In Orbit
Owner/State SPXS/US

Large Constellations

Loading constellations...